GW2140 Weather Reports


Display with metric or nautical units.
time (UTC)temp
F
wind
direction
speed
MPH
gust
MPH
rain 1hr
in
rain 24hr
in
rain mn
in
humidity
%
barometer
mb
20260509053049 53 194 1.0 4.0 0.00 0.01 0.00 83 1006.8
20260509051527 53 163 2.0 5.0 0.00 0.01 0.00 82 1006.8
20260509050032 53 192 0.0 4.0 0.00 0.01 0.00 81 1006.9
20260509044533 54 190 0.0 3.0 0.00 0.01 0.00 80 1007.1
20260509043033 54 0 0.0 5.0 0.00 0.01 0.00 79 1007.1
20260509041528 54 183 0.0 5.0 0.00 0.01 0.00 79 1007.2
20260509040030 55 173 1.0 4.0 0.00 0.01 0.00 78 1007.3
20260509034534 55 151 0.0 6.0 0.00 0.01 0.01 78 1007.3
20260509033029 56 213 0.0 7.0 0.00 0.01 0.01 78 1007.6
20260509031533 55 0 1.0 5.0 0.00 0.01 0.01 79 1007.6
20260509030030 56 0 0.0 6.0 0.00 0.01 0.01 79 1007.5
20260509024530 55 182 1.0 5.0 0.00 0.01 0.01 79 1007.7
20260509023032 56 0 0.0 2.0 0.00 0.01 0.01 78 1007.7
20260509021528 56 0 0.0 0.0 0.00 0.01 0.01 77 1007.7
20260509020036 57 0 0.0 1.0 0.00 0.01 0.01 75 1007.7
20260509014534 57 0 0.0 2.0 0.00 0.01 0.01 74 1007.7
20260509013028 58 0 0.0 0.0 0.00 0.01 0.01 71 1007.6
20260509011528 58 0 0.0 0.0 0.00 0.01 0.01 69 1007.6
20260509010028 59 0 0.0 0.0 0.00 0.01 0.01 66 1007.5
20260509004536 60 0 0.0 2.0 0.00 0.09 0.01 64 1007.3
20260509003033 61 198 0.0 2.0 0.00 0.09 0.01 60 1007.3
20260509001528 61 0 1.0 5.0 0.00 0.09 0.01 57 1007.1
20260509000028 62 251 0.0 4.0 0.00 0.09 0.01 54 1007.1
20260508234528 62 153 1.0 5.0 0.00 0.09 0.01 53 1007.1
20260508233030 63 249 2.0 9.0 0.00 0.09 0.01 54 1007.2
20260508231529 63 0 0.0 8.0 0.00 0.09 0.01 54 1007.2
20260508230032 63 0 1.0 6.0 0.00 0.09 0.01 54 1007.3
20260508224532 63 0 1.0 7.0 0.00 0.09 0.01 56 1007.2
20260508223039 63 54 3.0 6.0 0.00 0.09 0.01 56 1007.3
20260508221532 63 180 3.0 9.0 0.00 0.09 0.01 55 1007.4
20260508220032 64 298 2.0 7.0 0.00 0.09 0.01 57 1007.4
20260508214528 63 199 3.0 10.0 0.00 0.09 0.01 60 1007.3
20260508213030 63 222 1.0 6.0 0.00 0.09 0.01 56 1007.5
20260508211538 63 236 2.0 8.0 0.00 0.09 0.01 57 1007.6
20260508210030 62 242 3.0 8.0 0.00 0.09 0.01 58 1007.9
20260508204528 62 162 5.0 9.0 0.00 0.09 0.01 57 1008.1
20260508203028 62 212 1.0 8.0 0.00 0.09 0.01 61 1008.1
20260508201526 62 173 3.0 11.0 0.00 0.09 0.01 61 1008.4
20260508200030 62 201 3.0 9.0 0.00 0.09 0.01 59 1008.6
20260508194531 62 230 2.0 10.0 0.00 0.09 0.01 59 1008.8
20260508193034 63 259 4.0 11.0 0.00 0.09 0.01 58 1008.9
20260508191537 62 271 2.0 12.0 0.00 0.09 0.01 61 1009.0
20260508190032 62 216 4.0 8.0 0.00 0.09 0.01 60 1009.4
20260508184531 62 178 4.0 11.0 0.00 0.09 0.01 61 1009.7
20260508183033 62 170 4.0 11.0 0.00 0.09 0.01 60 1009.8
20260508181528 61 190 4.0 10.0 0.00 0.09 0.01 58 1009.9
20260508180028 62 111 3.0 9.0 0.00 0.09 0.01 53 1010.0
20260508174529 61 196 2.0 11.0 0.00 0.09 0.01 47 1010.3
20260508173027 61 51 1.0 11.0 0.00 0.09 0.01 52 1010.6
20260508171535 61 185 4.0 8.0 0.00 0.09 0.01 48 1010.9
20260508170030 60 252 1.0 8.0 0.00 0.09 0.01 54 1010.9
20260508164528 60 263 4.0 8.0 0.00 0.09 0.01 54 1011.1
20260508163035 60 175 2.0 8.0 0.00 0.09 0.01 47 1011.2
20260508161532 59 248 1.0 9.0 0.00 0.09 0.01 60 1011.5
20260508160028 58 246 1.0 5.0 0.00 0.09 0.01 59 1011.6
20260508154530 57 269 1.0 7.0 0.00 0.09 0.01 68 1011.6
20260508153034 55 163 2.0 7.0 0.00 0.09 0.01 68 1011.6
20260508151530 55 222 0.0 4.0 0.00 0.09 0.01 76 1011.6
20260508150030 54 279 1.0 4.0 0.00 0.09 0.01 79 1011.8
20260508144529 52 188 2.0 5.0 0.00 0.09 0.01 82 1011.6
20260508143027 51 167 2.0 8.0 0.00 0.09 0.01 85 1011.7
20260508141530 50 138 3.0 10.0 0.00 0.09 0.01 86 1011.9
20260508140029 50 165 0.0 7.0 0.00 0.09 0.01 88 1012.0
20260508134531 50 242 1.0 6.0 0.00 0.09 0.01 92 1012.0
20260508133028 49 218 2.0 5.0 0.00 0.09 0.01 93 1012.1
20260508131531 47 0 0.0 4.0 0.00 0.09 0.01 93 1011.9
20260508130031 46 235 0.0 3.0 0.00 0.09 0.01 94 1011.9
20260508124530 46 0 0.0 4.0 0.00 0.09 0.01 94 1011.9
20260508123028 45 0 0.0 2.0 0.00 0.09 0.01 94 1012.0
20260508121527 44 183 0.0 3.0 0.00 0.09 0.01 94 1011.9
20260508120036 43 0 0.0 1.0 0.00 0.09 0.01 94 1011.7
20260508114530 42 0 0.0 1.0 0.00 0.09 0.01 94 1011.7
20260508113030 41 0 0.0 2.0 0.00 0.09 0.01 94 1011.5
20260508111531 40 0 0.0 0.0 0.00 0.09 0.01 94 1011.5
20260508110029 39 0 0.0 2.0 0.00 0.09 0.01 93 1011.4
20260508104528 39 0 0.0 0.0 0.00 0.09 0.01 93 1011.2
20260508103030 39 0 0.0 0.0 0.00 0.09 0.01 93 1011.2
20260508101530 40 0 0.0 0.0 0.00 0.09 0.01 93 1011.2
20260508100027 41 0 0.0 0.0 0.00 0.09 0.01 93 1011.3
20260508094530 41 0 0.0 2.0 0.00 0.09 0.01 94 1011.1
20260508093031 40 0 0.0 0.0 0.00 0.09 0.01 93 1011.2
20260508091531 41 0 0.0 2.0 0.00 0.09 0.01 93 1011.3
20260508090028 41 0 0.0 2.0 0.00 0.09 0.01 93 1011.3
20260508084530 41 0 0.0 3.0 0.00 0.09 0.01 93 1011.3
20260508083028 41 217 0.0 2.0 0.00 0.09 0.01 93 1011.3
20260508081539 41 0 0.0 0.0 0.00 0.09 0.01 93 1011.3
20260508080027 41 163 1.0 2.0 0.00 0.09 0.01 93 1011.3
20260508074529 41 0 0.0 0.0 0.01 0.09 0.01 93 1011.4
20260508073029 41 0 0.0 0.0 0.01 0.09 0.01 93 1011.4
20260508071528 41 0 0.0 0.0 0.01 0.09 0.01 93 1011.4
20260508070031 41 0 0.0 0.0 0.01 0.09 0.01 92 1011.6
20260508064530 41 163 0.0 0.0 0.00 0.08 0.00 92 1011.5
20260508063027 42 0 0.0 0.0 0.00 0.08 0.00 92 1011.6
20260508061529 42 0 0.0 0.0 0.00 0.08 0.00 92 1011.5
20260508060030 42 0 0.0 0.0 0.00 0.08 0.00 92 1011.6
20260508054530 42 0 0.0 0.0 0.00 0.08 0.00 92 1011.7